Theta_e
322 322 323 324 325 327 328 327 325 324 324 323 321 321 318 316 312 310 308 308 307 306
314 315 316 316 316 317 317 314 315 316 316 316 316 315 316 315 312 311 309 308 308 307
307 309 310 312 313 314 315 315 315 316 315 313 313 313 312 312 311 309 308 308 306 306
304 304 305 306 306 306 307 308 308 309 310 310 310 311 310 310 309 306 307 305 304 304
299 300 301 301 302 303 303 304 304 304 305 306 306 307 307 306 307 306 304 304 302 303
295 296 296 297 297 298 298 300 300 300 300 301 301 301 302 302 302 303 304 304 302 302
293 293 293 294 294 294 295 295 296 296 296 296 296 295 295 294 297 298 300 300 300 300
291 291 292 291 291 292 292 292 293 292 293 294 294 292 294 292 293 293 294 294 294 294
289 289 289 289 289 290 290 291 291 291 291 291 290 291 292 292 291 291 290 290 291 291
287 287 288 288 288 288 288 289 289 289 290 290 291 290 290 290 290 290 290 290 289 289
286 285 286 286 286 286 287 286 286 287 287 287 288 288 289 289 290 290 290 291 290 290
284 283 283 283 284 285 285 285 285 285 285 285 285 287 287 288 289 288 288 289 290 289
284 282 282 284 283 284 283 283 283 284 285 284 283 285 286 287 288 286 287 288 288 286
283 281 282 283 283 282 282 282 281 282 283 283 284 283 285 286 286 286 285 285 285 287
Wind_Speed
4 3 3 5 4 5 6 7 6 7 8 9 9 10 10 8 9 10 10 13 12 9
3 2 1 2 2 3 3 2 2 3 4 5 5 5 7 8 9 9 10 11 11 11
6 5 4 3 4 5 5 5 6 7 6 5 5 5 5 6 6 8 7 8 10 10
6 6 5 5 4 4 5 5 5 6 7 7 8 8 7 8 7 8 9 8 9 11
8 7 7 7 7 6 6 6 6 6 7 7 8 8 10 11 9 9 9 9 9 11
7 7 8 8 7 7 7 7 7 7 7 8 7 8 9 10 11 10 10 11 11 11
9 9 8 8 7 6 6 6 6 5 6 6 7 7 6 6 8 9 9 9 10 11
8 8 7 8 8 7 6 6 6 6 6 6 6 4 7 7 8 9 9 9 9 9
8 7 7 7 7 7 7 8 8 8 8 8 4 9 12 11 7 8 8 9 9 8
8 9 10 10 10 10 11 12 11 11 11 11 10 11 12 11 7 7 8 8 7 7
7 7 8 8 8 8 7 8 9 10 10 11 9 16 16 13 9 9 10 10 9 9
6 6 7 7 8 7 7 8 7 7 8 8 9 15 16 13 7 7 9 8 9 10
6 6 7 7 8 6 6 8 7 8 7 8 10 15 15 12 6 8 8 7 8 10
6 6 7 7 7 7 8 7 8 9 8 8 7 9 15 15 7 7 8 8 7 7
Wind_Direction
236 255 267 274 270 262 236 224 214 216 224 225 225 221 219 218 218 217 219 224 222 223
76 54 351 283 274 270 301 316 305 255 244 241 236 226 216 221 219 213 216 225 227 231
73 71 63 38 358 327 310 295 284 272 264 264 251 235 229 237 229 217 225 224 223 224
43 52 59 54 34 5 325 312 291 284 277 263 260 258 244 243 231 226 233 223 227 233
28 29 42 40 23 7 345 330 319 307 295 288 280 271 260 260 245 237 236 234 230 237
37 31 30 23 19 12 355 343 332 320 308 305 297 288 280 277 273 261 255 253 246 247
24 24 21 13 9 6 352 341 331 324 310 302 299 285 280 267 270 273 266 260 254 250
19 16 13 12 2 358 354 348 339 330 326 312 293 291 288 273 270 265 267 261 255 252
14 6 7 5 360 1 359 358 350 351 340 329 311 312 304 289 269 259 257 263 262 255
2 4 2 358 356 358 352 346 345 343 343 331 324 322 316 300 277 268 265 266 266 268
3 358 352 350 347 343 339 334 328 325 327 322 315 323 321 316 298 285 278 277 276 271
356 342 338 333 330 326 319 317 310 305 306 302 300 309 310 310 299 282 279 276 274 273
331 318 315 312 309 299 294 295 304 300 293 290 292 300 303 305 291 288 287 280 269 268
320 311 302 300 289 285 291 289 289 290 291 287 282 294 301 302 294 287 292 292 292 293